Regional Weather Roundup
Issued by NWS State College, PA

Home | Current Version | Previous Version | Graphics & Text | Print | Product List | Glossary On
Versions: 1 2 3 4 5 6 7 8 9 10 11 12 13 14 15 16 17 18 19 20 21 22 23 24 25 26 27 28 29 30 31 32 33 34 35 36 37 38 39 40 41 42 43 44 45 46 47 48 49 50
492
ASUS41 KCTP 270510
RWRCTP

REGIONAL WEATHER ROUNDUP
NATIONAL WEATHER SERVICE STATE COLLEGE PA
100 AM EDT SAT MAY 27 2017

Note: "fair" indicates few or no clouds below 12,000 feet with no
significant weather and/or obstructions to visibility.

* = STATION THAT DOES NOT REPORT PRECIPITATION /E.G. RAIN...SNOW...ETC/
    THUNDER OR FOG.

PAZ002>004-007>009-013>016-020>023-029>032-270600-
WESTERN PENNSYLVANIA

CITY           SKY/WX    TMP DP  RH WIND       PRES   REMARKS
ERIE           CLEAR     53  51  93 S3        29.90F
MEADVILLE      CLOUDY    54  53  97 CALM      29.92R
FRANKLIN*      CLOUDY    52  48  87 CALM      29.92F
NEW CASTLE     FAIR      50  50 100 SW3       29.94R
BEAVER COUNTY  NOT AVBL
BUTLER*        CLEAR     54  50  87 CALM      29.93S
PITTSBURGH INT PTCLDY    56  55  97 CALM      29.92S
PITTSBURGH     CLEAR     59  51  75 SE3       29.92S
INDIANA*       CLOUDY    52  52 100 CALM      29.95F
LATROBE        PTCLDY    54  54 100 CALM      29.94S
WASHINGTON CO* CLEAR     52  52 100 CALM      29.95S
$$

PAZ004>006-010>012-017>019-024>028-033>037-041-042-045-046-049>053-270600-
CENTRAL PENNSYLVANIA

CITY           SKY/WX    TMP DP  RH WIND       PRES   REMARKS
BRADFORD       CLOUDY    53  52  96 CALM      29.92S
DUBOIS         MOCLDY    52  49  89 CALM      29.91F
CLEARFIELD     PTCLDY    53  52  96 NW6       29.92F
JOHNSTOWN      CLOUDY    55  52  89 SW3       29.94S
ALTOONA        CLOUDY    55  52  89 SW3       29.94R
STATE COLLEGE  CLOUDY    57  51  80 W3        29.92S
WILLIAMSPORT   CLEAR     59  52  77 NW8       29.87S
SELINSGROVE    CLEAR     53  52  96 CALM      29.89S
FT INDIANTOWN  CLEAR     60  51  72 W6        29.88S
CAPITAL CITY   CLEAR     61  50  67 S3        29.88S
HARRISBURG     CLEAR     62  53  72 W6        29.88S
YORK           PTCLDY    56  53  90 CALM      29.89F
$$

PAZ038>040-043-044-047-048-054-055-060>062-067>071-270600-
EASTERN PENNSYLVANIA

CITY           SKY/WX    TMP DP  RH WIND       PRES   REMARKS
SCRANTON       CLOUDY    60  56  86 NW3       29.86S
MOUNT POCONO   CLOUDY    54  53  97 NW10      29.86S
ALLENTOWN      PTCLDY    58  53  84 SW7       29.85S
QUAKERTOWN*    CLEAR     59  55  88 CALM      29.86F
READING        CLEAR     59  53  80 W7        29.86S
LANCASTER      CLEAR     56  53  90 W6        29.89R
COATESVILLE    CLEAR     57  52  82 W6        29.90R
POTTSTOWN      CLEAR     58  55  90 SW3       29.89R
BLUE BELL      CLEAR     54  54 100 CALM      29.88R
DOYLESTOWN     CLEAR     60  56  86 CALM      29.85R
WILLOW GROVE   NOT AVBL
NORTH PHILA    PTCLDY    63  55  75 W5        29.87S
PHILADELPHIA   PTCLDY    66  54  65 W6        29.87R
$$




USA.gov is the U.S. government's official web portal to all federal, state and local government web resources and services.